KLM42B EGPF-EHAM

Flight info

Callsign KLM42B
Flight time N/A
Altitude 37000
Route NORBO Y96 HAVEN DCT ERKIT N110 DOLAS L603 LAMSO
Aircraft A21N/M-SDE2E3FGHIRWXY/LB1

Departure

Time 2026-05-07 12:02
Airport Glasgow Airport (EGPF)

Arrival

Time N/A
Airport Amsterdam Airport Schiphol (EHAM)
Time Latitude Longitude Altitude Speed Heading
2026-05-07 11:30 55.86670 -4.43022 34 ft 0 kts 254°
2026-05-07 11:53 55.86674 -4.42993 33 ft 4 kts 257°
2026-05-07 11:53 55.86675 -4.42949 33 ft 4 kts 298°
2026-05-07 11:54 55.86658 -4.42921 32 ft 3 kts 343°
2026-05-07 11:54 55.86654 -4.42919 32 ft 1 kts 345°
2026-05-07 11:57 55.86704 -4.42944 32 ft 19 kts 343°
2026-05-07 11:57 55.86845 -4.42976 35 ft 22 kts 20°
2026-05-07 11:57 55.87009 -4.42844 30 ft 30 kts 22°
2026-05-07 11:58 55.87224 -4.42699 30 ft 36 kts 20°
2026-05-07 11:58 55.87454 -4.42475 32 ft 39 kts 44°
2026-05-07 11:58 55.87651 -4.42097 27 ft 44 kts 46°
2026-05-07 11:58 55.87844 -4.41848 28 ft 13 kts
2026-05-07 11:59 55.87850 -4.41848 27 ft 0 kts 360°
2026-05-07 11:59 55.87853 -4.41848 27 ft 5 kts 360°
2026-05-07 11:59 55.87925 -4.41994 28 ft 21 kts 246°
2026-05-07 12:00 55.87822 -4.42154 28 ft 9 kts 225°
2026-05-07 12:00 55.87820 -4.42158 28 ft 0 kts 224°
2026-05-07 12:01 55.87774 -4.42239 27 ft 32 kts 224°
2026-05-07 12:01 55.87476 -4.42797 33 ft 95 kts 226°
2026-05-07 12:02 55.86855 -4.43934 94 ft 149 kts 225°
2026-05-07 12:02 55.86113 -4.45296 568 ft 160 kts 223°
2026-05-07 12:02 55.85341 -4.46714 1323 ft 155 kts 223°
2026-05-07 12:02 55.84594 -4.48054 2078 ft 158 kts 222°
2026-05-07 12:03 55.83762 -4.49522 2396 ft 179 kts 222°
2026-05-07 12:03 55.82823 -4.51175 2673 ft 201 kts 224°
2026-05-07 12:03 55.81781 -4.53016 3036 ft 220 kts 224°
2026-05-07 12:03 55.80657 -4.55001 3594 ft 233 kts 224°
2026-05-07 12:04 55.79496 -4.57050 4353 ft 237 kts 224°
2026-05-07 12:04 55.78317 -4.59130 5165 ft 242 kts 224°
2026-05-07 12:04 55.77102 -4.61267 5751 ft 247 kts 224°
2026-05-07 12:04 55.75887 -4.63402 5961 ft 245 kts 224°
2026-05-07 12:05 55.74672 -4.65534 5992 ft 245 kts 224°
2026-05-07 12:05 55.73458 -4.67663 5957 ft 245 kts 223°
2026-05-07 12:05 55.72232 -4.69775 5954 ft 246 kts 223°
2026-05-07 12:05 55.70996 -4.71875 5946 ft 246 kts 223°
2026-05-07 12:06 55.69715 -4.73864 5945 ft 244 kts 216°
2026-05-07 12:06 55.68231 -4.75318 5957 ft 244 kts 201°
2026-05-07 12:06 55.66571 -4.75981 5957 ft 247 kts 187°
2026-05-07 12:06 55.64850 -4.76126 5956 ft 248 kts 184°
2026-05-07 12:07 55.63124 -4.75912 5947 ft 251 kts 172°
2026-05-07 12:07 55.61477 -4.74829 5951 ft 256 kts 153°
2026-05-07 12:07 55.60113 -4.72750 5952 ft 265 kts 133°
2026-05-07 12:07 55.59244 -4.69834 5954 ft 274 kts 112°
2026-05-07 12:08 55.58797 -4.66521 6199 ft 281 kts 104°
2026-05-07 12:08 55.58534 -4.63067 6925 ft 284 kts 101°
2026-05-07 12:08 55.58355 -4.59628 7749 ft 286 kts 99°
2026-05-07 12:08 55.58193 -4.56110 8580 ft 289 kts 99°
2026-05-07 12:09 55.58021 -4.52558 9397 ft 292 kts 99°
2026-05-07 12:09 55.57827 -4.48970 10172 ft 296 kts 100°
2026-05-07 12:09 55.57603 -4.45238 10525 ft 316 kts 100°
2026-05-07 12:09 55.57344 -4.41256 10810 ft 337 kts 100°
2026-05-07 12:10 55.57060 -4.37024 11101 ft 357 kts 100°
2026-05-07 12:10 55.56759 -4.32556 11417 ft 375 kts 100°
2026-05-07 12:10 55.56477 -4.28357 11880 ft 384 kts 100°
2026-05-07 12:10 55.56180 -4.23901 12498 ft 390 kts 100°
2026-05-07 12:11 55.55861 -4.19108 13189 ft 395 kts 100°
2026-05-07 12:11 55.55536 -4.14256 13880 ft 400 kts 100°
2026-05-07 12:11 55.55205 -4.09358 14477 ft 404 kts 100°
2026-05-07 12:11 55.54867 -4.04405 15086 ft 408 kts 99°
2026-05-07 12:12 55.54523 -3.99398 15690 ft 413 kts 99°
2026-05-07 12:12 55.54173 -3.94342 16183 ft 415 kts 99°
2026-05-07 12:12 55.53819 -3.89265 16589 ft 419 kts 99°
2026-05-07 12:12 55.53459 -3.84131 17135 ft 424 kts 99°
2026-05-07 12:13 55.53419 -3.83568 17192 ft 424 kts 100°
2026-05-07 12:13 55.53190 -3.80316 17531 ft 427 kts 99°
2026-05-07 12:13 55.52819 -3.75100 18142 ft 430 kts 99°
2026-05-07 12:13 55.52444 -3.69847 18613 ft 434 kts 99°
2026-05-07 12:14 55.52063 -3.64547 19115 ft 437 kts 99°
2026-05-07 12:14 55.51678 -3.59229 19668 ft 437 kts 100°
2026-05-07 12:14 55.51289 -3.53885 20154 ft 441 kts 100°
2026-05-07 12:14 55.50895 -3.48511 20632 ft 443 kts 100°
2026-05-07 12:15 55.50498 -3.43110 21153 ft 444 kts 100°
2026-05-07 12:15 55.50096 -3.37692 21624 ft 447 kts 100°
2026-05-07 12:15 55.49640 -3.32252 22101 ft 449 kts 102°
2026-05-07 12:15 55.49103 -3.26821 22550 ft 451 kts 103°
2026-05-07 12:16 55.48526 -3.21433 22975 ft 454 kts 103°
2026-05-07 12:16 55.47914 -3.15888 23451 ft 456 kts 103°
2026-05-07 12:16 55.47286 -3.10483 23870 ft 456 kts 106°
2026-05-07 12:16 55.46358 -3.05137 24170 ft 457 kts 114°
2026-05-07 12:17 55.45003 -3.00091 24498 ft 456 kts 123°
2026-05-07 12:17 55.43200 -2.95512 24830 ft 454 kts 133°
2026-05-07 12:17 55.41040 -2.91448 25151 ft 455 kts 138°
2026-05-07 12:17 55.38748 -2.87610 25483 ft 456 kts 140°
2026-05-07 12:18 55.36383 -2.83879 25836 ft 456 kts 141°
2026-05-07 12:18 55.34000 -2.80210 26274 ft 455 kts 141°
2026-05-07 12:18 55.31615 -2.76553 26680 ft 455 kts 141°
2026-05-07 12:18 55.29242 -2.72900 27050 ft 455 kts 141°
2026-05-07 12:19 55.26866 -2.69220 27420 ft 455 kts 141°
2026-05-07 12:19 55.25301 -2.66785 27677 ft 455 kts 141°
2026-05-07 12:19 55.22939 -2.63100 28053 ft 454 kts 141°
2026-05-07 12:19 55.20588 -2.59428 28495 ft 452 kts 141°
2026-05-07 12:20 55.18242 -2.55762 28888 ft 451 kts 140°
2026-05-07 12:20 55.15902 -2.52113 29220 ft 451 kts 141°
2026-05-07 12:20 55.13558 -2.48464 29571 ft 451 kts 140°
2026-05-07 12:20 55.11216 -2.44826 29920 ft 450 kts 141°
2026-05-07 12:21 55.08872 -2.41191 30246 ft 450 kts 141°
2026-05-07 12:21 55.06534 -2.37573 30557 ft 448 kts 141°
2026-05-07 12:21 55.04204 -2.33972 30894 ft 446 kts 141°
2026-05-07 12:21 55.01886 -2.30396 31211 ft 445 kts 141°
2026-05-07 12:22 54.99575 -2.26837 31511 ft 443 kts 141°
2026-05-07 12:22 54.97264 -2.23283 31826 ft 441 kts 141°
2026-05-07 12:22 54.94981 -2.19777 32255 ft 436 kts 141°
2026-05-07 12:22 54.92704 -2.16287 32506 ft 436 kts 140°
2026-05-07 12:23 54.90422 -2.12797 32669 ft 437 kts 141°
2026-05-07 12:23 54.88145 -2.09318 32930 ft 436 kts 141°
2026-05-07 12:23 54.85871 -2.05850 33181 ft 435 kts 140°
2026-05-07 12:23 54.83597 -2.02386 33369 ft 435 kts 140°
2026-05-07 12:24 54.81328 -1.98935 33627 ft 433 kts 141°
2026-05-07 12:24 54.79065 -1.95499 33878 ft 432 kts 141°
2026-05-07 12:24 54.76809 -1.92078 34096 ft 431 kts 141°
2026-05-07 12:24 54.74555 -1.88666 34265 ft 430 kts 141°
2026-05-07 12:25 54.72295 -1.85252 34398 ft 430 kts 140°
2026-05-07 12:25 54.70047 -1.81861 34585 ft 429 kts 140°
2026-05-07 12:25 54.67796 -1.78468 34678 ft 430 kts 140°
2026-05-07 12:26 54.63270 -1.71665 34890 ft 431 kts 140°
2026-05-07 12:26 54.61006 -1.68269 35035 ft 431 kts 141°
2026-05-07 12:26 54.58742 -1.64878 35135 ft 432 kts 141°
2026-05-07 12:27 54.54189 -1.58076 35105 ft 434 kts 140°
2026-05-07 12:27 54.49628 -1.51281 35048 ft 434 kts 140°
2026-05-07 12:28 54.45063 -1.44502 35045 ft 431 kts 140°
2026-05-07 12:28 54.40561 -1.37837 35047 ft 429 kts 141°
2026-05-07 12:29 54.36035 -1.31155 35046 ft 430 kts 140°
2026-05-07 12:29 54.31496 -1.24473 35070 ft 429 kts 141°
2026-05-07 12:30 54.26969 -1.17830 35074 ft 429 kts 140°
2026-05-07 12:30 54.22429 -1.11190 35070 ft 429 kts 140°
2026-05-07 12:31 54.17891 -1.04571 35067 ft 430 kts 140°
2026-05-07 12:31 54.13540 -0.98244 35063 ft 431 kts 140°
2026-05-07 12:32 54.08978 -0.91630 35063 ft 431 kts 140°
2026-05-07 12:32 54.04402 -0.85016 35061 ft 431 kts 141°
2026-05-07 12:33 53.97115 -0.76030 35071 ft 432 kts 145°
2026-05-07 12:33 53.92165 -0.70242 35069 ft 432 kts 145°
2026-05-07 12:34 53.87212 -0.64483 35067 ft 432 kts 145°
2026-05-07 12:34 53.82264 -0.58731 35073 ft 431 kts 145°
2026-05-07 12:35 53.77315 -0.52984 35074 ft 431 kts 145°
2026-05-07 12:35 53.72397 -0.47288 35075 ft 431 kts 145°
2026-05-07 12:36 53.67454 -0.41580 35075 ft 430 kts 145°
2026-05-07 12:36 53.62514 -0.35892 35075 ft 430 kts 145°
2026-05-07 12:37 53.57795 -0.29761 35075 ft 428 kts 134°
2026-05-07 12:37 53.53945 -0.22130 35076 ft 428 kts 128°
2026-05-07 12:38 53.50345 -0.14148 35073 ft 429 kts 127°
2026-05-07 12:38 53.46781 -0.06119 35073 ft 429 kts 127°
2026-05-07 12:39 53.43198 0.01876 35063 ft 429 kts 127°
2026-05-07 12:39 53.39588 0.09851 35066 ft 430 kts 127°
2026-05-07 12:40 53.35964 0.17815 35063 ft 430 kts 127°
2026-05-07 12:40 53.32335 0.25766 35069 ft 430 kts 127°
2026-05-07 12:41 53.28701 0.33702 35071 ft 430 kts 127°
2026-05-07 12:41 53.25063 0.41627 35077 ft 430 kts 127°
2026-05-07 12:42 53.21420 0.49534 35077 ft 429 kts 127°
2026-05-07 12:42 53.17803 0.57363 35077 ft 430 kts 127°
2026-05-07 12:43 53.14149 0.65248 35085 ft 430 kts 127°
2026-05-07 12:43 53.10489 0.73119 35085 ft 430 kts 127°
2026-05-07 12:44 53.06824 0.80978 35084 ft 430 kts 127°
2026-05-07 12:44 53.03154 0.88823 35089 ft 430 kts 127°
2026-05-07 12:45 52.99552 0.96730 35085 ft 429 kts 121°
2026-05-07 12:45 52.97268 1.05795 35100 ft 427 kts 104°
2026-05-07 12:46 52.95992 1.15441 35093 ft 429 kts 101°
2026-05-07 12:46 52.94908 1.25173 35094 ft 429 kts 100°
2026-05-07 12:47 52.93820 1.34903 35095 ft 429 kts 101°
2026-05-07 12:47 52.92694 1.44615 35099 ft 429 kts 101°
2026-05-07 12:48 52.91551 1.54251 35101 ft 429 kts 101°
2026-05-07 12:48 52.90388 1.63959 35105 ft 430 kts 101°
2026-05-07 12:49 52.89218 1.73665 35108 ft 430 kts 101°
2026-05-07 12:49 52.88041 1.83365 35105 ft 430 kts 101°
2026-05-07 12:50 52.86856 1.93061 35107 ft 430 kts 101°
2026-05-07 12:50 52.85664 2.02753 35107 ft 430 kts 101°
2026-05-07 12:51 52.84465 2.12424 34431 ft 428 kts 101°
2026-05-07 12:51 52.83867 2.17222 33834 ft 425 kts 101°
2026-05-07 12:51 52.83270 2.21998 33169 ft 423 kts 101°
2026-05-07 12:52 52.82671 2.26774 32362 ft 425 kts 101°
2026-05-07 12:52 52.82069 2.31559 31538 ft 427 kts 101°
2026-05-07 12:52 52.81462 2.36367 30906 ft 425 kts 101°
2026-05-07 12:52 52.80863 2.41084 30636 ft 414 kts 101°
2026-05-07 12:53 52.80278 2.45677 30329 ft 405 kts 101°
2026-05-07 12:53 52.79700 2.50212 29589 ft 405 kts 101°
2026-05-07 12:53 52.79111 2.54816 28405 ft 414 kts 101°
2026-05-07 12:53 52.78505 2.59537 27231 ft 425 kts 102°
2026-05-07 12:54 52.77888 2.64334 26353 ft 428 kts 102°
2026-05-07 12:54 52.77267 2.69137 25671 ft 427 kts 102°
2026-05-07 12:54 52.76638 2.73980 25243 ft 439 kts 102°
2026-05-07 12:54 52.75986 2.78981 25114 ft 449 kts 102°
2026-05-07 12:55 52.75324 2.84034 25107 ft 450 kts 102°
2026-05-07 12:55 52.74660 2.89085 25111 ft 451 kts 102°
2026-05-07 12:55 52.73995 2.94136 25111 ft 450 kts 102°
2026-05-07 12:55 52.73166 2.99114 25098 ft 449 kts 111°
2026-05-07 12:56 52.71810 3.03752 25106 ft 450 kts 119°
2026-05-07 12:56 52.70265 3.08238 25105 ft 451 kts 120°
2026-05-07 12:56 52.68684 3.12701 25104 ft 451 kts 121°
2026-05-07 12:56 52.67103 3.17161 25104 ft 451 kts 120°
2026-05-07 12:57 52.65546 3.21558 24957 ft 449 kts 120°
2026-05-07 12:57 52.63982 3.25981 24291 ft 446 kts 121°
2026-05-07 12:57 52.62422 3.30391 23420 ft 446 kts 121°
2026-05-07 12:57 52.60856 3.34814 22425 ft 447 kts 121°
2026-05-07 12:58 52.59320 3.39242 21630 ft 444 kts 117°
2026-05-07 12:58 52.58267 3.43989 20862 ft 441 kts 104°
2026-05-07 12:58 52.57666 3.48904 20149 ft 437 kts 101°
2026-05-07 12:58 52.57155 3.53816 19394 ft 434 kts 100°
2026-05-07 12:59 52.56654 3.58686 18688 ft 430 kts 100°
2026-05-07 12:59 52.56153 3.63485 18268 ft 419 kts 100°
2026-05-07 12:59 52.55662 3.68125 17986 ft 405 kts 100°
2026-05-07 12:59 52.55185 3.72591 17744 ft 390 kts 100°
2026-05-07 13:00 52.54721 3.76902 17520 ft 376 kts 100°
2026-05-07 13:00 52.54271 3.81053 17301 ft 363 kts 101°
2026-05-07 13:00 52.53834 3.85064 17107 ft 350 kts 100°
2026-05-07 13:00 52.53413 3.88914 16920 ft 338 kts 101°
2026-05-07 13:01 52.53004 3.92650 16674 ft 328 kts 101°
2026-05-07 13:01 52.52445 3.96241 16260 ft 323 kts 115°
2026-05-07 13:01 52.51269 3.99344 15812 ft 319 kts 128°
2026-05-07 13:01 52.49878 4.02156 15388 ft 316 kts 130°
2026-05-07 13:02 52.48466 4.04894 14970 ft 313 kts 131°
2026-05-07 13:02 52.47079 4.07582 14518 ft 312 kts 130°
2026-05-07 13:02 52.45683 4.10299 14093 ft 310 kts 130°
2026-05-07 13:02 52.44302 4.12995 13634 ft 308 kts 130°